This is the latest recevied weather packets stored in our database for station/object K5WNG. If no packets are shown the sender has not sent any weather packets the latest 10 day(s).
| Time | Temp. | Humidity | Pressure | Rain* | Wind** | Luminosity | Snow |
|---|---|---|---|---|---|---|---|
| 1778093118 | 25° C | 71% | 1011.6 hPa | 0 mm | - | 476 W/m² | - |
| 1778092818 | 25° C | 70% | 1011.6 hPa | 0 mm | - | 688 W/m² | - |
| 1778092517 | 25° C | 71% | 1011.6 hPa | 0 mm | - | 660 W/m² | - |
| 1778092218 | 25° C | 70% | 1011.6 hPa | 0 mm | - | 808 W/m² | - |
| 1778091920 | 25° C | 70% | 1011.6 hPa | 0 mm | - | 928 W/m² | - |
| 1778091621 | 25° C | 70% | 1011.5 hPa | 0 mm | - | 995 W/m² | - |
| 1778091321 | 25° C | 70% | 1011.6 hPa | 0 mm | - | 904 W/m² | - |
| 1778091018 | 25° C | 70% | 1011.6 hPa | 0 mm | - | 1017 W/m² | - |
| 1778090721 | 24.44° C | 70% | 1011.5 hPa | 0 mm | - | 1007 W/m² | - |
| 1778090420 | 23.89° C | 72% | 1011.5 hPa | 0 mm | - | 1012 W/m² | - |
| 1778090118 | 23.89° C | 72% | 1011.4 hPa | 0 mm | - | 1013 W/m² | - |
| 1778089821 | 23.33° C | 73% | 1011.4 hPa | 0 mm | - | 1006 W/m² | - |
| 1778089518 | 23.33° C | 73% | 1011.3 hPa | 0 mm | - | 1008 W/m² | - |
| 1778089220 | 23.33° C | 73% | 1011.2 hPa | 0 mm | - | 1005 W/m² | - |
| 1778088918 | 22.78° C | 73% | 1011.3 hPa | 0 mm | - | 996 W/m² | - |
| 1778088620 | 22.78° C | 74% | 1011.4 hPa | 0 mm | - | 991 W/m² | - |
| 1778088315 | 22.22° C | 75% | 1011.5 hPa | 0 mm | - | 988 W/m² | - |
| 1778088016 | 22.22° C | 75% | 1011.6 hPa | 0 mm | - | 984 W/m² | - |
| 1778087716 | 22.22° C | 76% | 1011.5 hPa | 0 mm | - | 978 W/m² | - |
| 1778087418 | 21.67° C | 76% | 1011.4 hPa | 0 mm | - | 970 W/m² | - |
| 1778087119 | 21.67° C | 77% | 1011.5 hPa | 0 mm | - | 938 W/m² | - |
| 1778086819 | 21.67° C | 78% | 1011.5 hPa | 0 mm | - | 943 W/m² | - |
| 1778086516 | 21.11° C | 80% | 1011.5 hPa | 0 mm | - | 933 W/m² | - |
| 1778086218 | 20.56° C | 80% | 1011.8 hPa | 0 mm | - | 909 W/m² | - |
| 1778085919 | 19.44° C | 83% | 1012.1 hPa | 0 mm | - | 910 W/m² | - |
* Rain latest hour (hover to see other rain measurements)
** Current wind speed in m/s (hover to see current wind gust speed)